CW1936 Weather Reports


time (UTC)temp
C
wind
direction
speed
KPH
gust
KPH
rain 1hr
cm
rain 24hr
cm
rain mn
cm
humidity
%
barometer
mb
20260906104522 33 65 1.6 14.5 0.00 0.03 0.03 29 1014.4
20260906103022 33 107 1.6 12.9 0.00 0.03 0.03 28 1014.4
20260906101520 33 32 1.6 9.7 0.00 0.03 0.03 27 1014.5
20260906100017 33 287 1.6 12.9 0.03 0.03 0.03 28 1014.7
20260906094525 33 40 1.6 12.9 0.03 0.03 0.03 27 1014.7
20260906093015 33 28 3.2 11.3 0.03 0.03 0.03 28 1014.8
20260906091524 32 345 0.0 17.7 0.03 0.03 0.03 30 1014.8
20260906090014 32 347 1.6 20.9 0.00 0.00 0.00 31 1015.0
20260906084521 32 75 3.2 17.7 0.00 0.00 0.00 31 1014.9
20260906083021 32 30 3.2 14.5 0.00 0.00 0.00 30 1014.9
20260906081529 33 86 1.6 9.7 0.00 0.00 0.00 30 1014.8
20260906080009 32 199 1.6 12.9 0.00 0.00 0.00 29 1014.8
20260906074509 32 65 6.4 20.9 0.00 0.00 0.00 30 1014.8
20260906073007 33 70 1.6 11.3 0.00 0.00 0.00 30 1014.6
20260906071504 32 60 3.2 12.9 0.00 0.00 0.00 29 1014.5
20260906070002 33 127 0.0 14.5 0.00 0.00 0.00 29 1014.4
20260906064558 32 335 1.6 6.4 0.00 0.00 0.00 27 1014.4
20260906063055 32 185 0.0 9.7 0.00 0.00 0.00 30 1014.4
20260906061551 30 13 0.0 9.7 0.00 0.00 0.00 42 1014.3
20260906060050 28 124 1.6 9.7 0.00 0.00 0.00 52 1014.3
20260906054551 27 123 4.8 8.0 0.00 0.00 0.00 54 1014.1
20260906053045 27 118 4.8 6.4 0.00 0.00 0.00 53 1014.0
20260906051551 28 113 0.0 3.2 0.00 0.00 0.00 51 1014.0
20260906050108 30 94 0.0 0.0 0.00 0.00 0.00 48 1013.9
20260906044538 27 94 0.0 0.0 0.00 0.00 0.00 53 1013.7
20260906043038 24 95 0.0 0.0 0.00 0.00 0.00 54 1013.7
20260906041535 22 94 0.0 0.0 0.00 0.00 0.00 57 1013.5
20260906040041 21 94 0.0 0.0 0.00 0.00 0.00 57 1013.4
20260906034541 21 94 0.0 0.0 0.00 0.00 0.00 59 1013.3
20260906033034 21 94 0.0 0.0 0.00 0.00 0.00 62 1013.3
20260906031540 21 94 0.0 0.0 0.00 0.00 0.00 64 1013.3
20260906030033 21 94 0.0 0.0 0.00 0.00 0.00 65 1013.3
20260906024531 21 94 0.0 0.0 0.00 0.00 0.00 66 1013.3
20260906023034 21 95 0.0 0.0 0.00 0.00 0.00 67 1013.3
20260906021529 21 95 0.0 0.0 0.00 0.00 0.00 67 1013.3
20260906020030 21 95 0.0 0.0 0.00 0.00 0.00 68 1013.3
20260906014532 22 94 0.0 0.0 0.00 0.00 0.00 69 1013.3
20260906013021 22 95 0.0 0.0 0.00 0.00 0.00 69 1013.4
20260906011519 22 94 0.0 0.0 0.00 0.00 0.00 68 1013.4
20260906010017 23 95 0.0 0.0 0.00 0.00 0.00 65 1013.4
20260906004516 23 94 0.0 1.6 0.00 0.00 0.00 67 1013.6
20260906003014 23 203 0.0 0.0 0.00 0.00 0.00 60 1013.5
20260906001512 23 203 0.0 0.0 0.00 0.00 0.00 55 1013.5
20260906000013 25 203 0.0 0.0 0.00 0.00 0.00 54 1013.5
20260905234510 26 109 3.2 12.9 0.00 0.00 0.00 60 1013.6
20260905233020 25 79 3.2 8.0 0.00 0.00 0.00 59 1013.6
20260905231504 23 119 0.0 0.0 0.00 0.00 0.00 54 1013.7
20260905230004 23 119 0.0 3.2 0.00 0.00 0.00 50 1013.7
20260905224504 23 277 0.0 0.0 0.00 0.00 0.00 51 1013.7
20260905223101 23 282 0.0 0.0 0.00 0.00 0.00 51 1013.8
20260905221601 23 310 0.0 0.0 0.00 0.00 0.00 54 1013.8
20260905220058 23 310 0.0 0.0 0.00 0.00 0.00 54 1013.9
20260905214607 23 310 0.0 0.0 0.00 0.00 0.00 54 1013.9
20260905213102 23 310 0.0 0.0 0.00 0.00 0.00 53 1014.0
20260905211554 23 310 0.0 0.0 0.00 0.00 0.00 53 1014.0
20260905210052 23 310 0.0 0.0 0.00 0.00 0.00 52 1014.2
20260905204550 23 310 0.0 0.0 0.00 0.00 0.00 50 1014.2
20260905203049 24 310 0.0 0.0 0.00 0.00 0.00 51 1014.3
20260905201547 24 310 0.0 0.0 0.00 0.00 0.00 51 1014.2
20260905200047 25 310 0.0 0.0 0.00 0.00 0.00 48 1014.4
20260905194542 26 310 0.0 3.2 0.00 0.00 0.00 47 1014.5
20260905193042 26 58 0.0 4.8 0.00 0.00 0.00 49 1014.5
20260905191540 26 279 0.0 6.4 0.00 0.00 0.00 50 1014.6
20260905190040 26 250 1.6 8.0 0.00 0.00 0.00 50 1014.6
20260905184551 25 147 0.0 0.0 0.00 0.00 0.00 55 1014.5
20260905183041 26 139 0.0 3.2 0.00 0.00 0.00 56 1014.6
20260905181538 26 271 0.0 1.6 0.00 0.00 0.00 56 1014.4
20260905180036 26 174 0.0 4.8 0.00 0.00 0.00 53 1014.3
20260905174542 26 345 0.0 6.4 0.00 0.00 0.00 53 1014.2
20260905173035 26 243 0.0 4.8 0.00 0.00 0.00 52 1014.0
20260905171535 27 52 1.6 9.7 0.00 0.00 0.00 52 1013.9
20260905170032 27 85 0.0 11.3 0.00 0.00 0.00 50 1013.6
20260905164530 27 113 0.0 6.4 0.00 0.00 0.00 51 1013.5
20260905163029 27 255 0.0 4.8 0.00 0.00 0.00 50 1013.5
20260905161528 27 316 0.0 16.1 0.00 0.00 0.00 56 1013.5
20260905160042 27 128 0.0 4.8 0.00 0.00 0.00 53 1013.4
20260905154525 28 320 0.0 4.8 0.00 0.00 0.00 48 1013.4
20260905153025 28 108 3.2 16.1 0.00 0.00 0.00 45 1013.2
20260905151524 28 108 1.6 20.9 0.00 0.00 0.00 44 1013.2
20260905150027 28 25 4.8 19.3 0.00 0.00 0.00 44 1013.1
20260905144539 28 49 4.8 22.5 0.00 0.00 0.00 46 1013.2
20260905143023 28 98 3.2 14.5 0.00 0.00 0.00 45 1013.0
20260905141533 28 136 3.2 16.1 0.00 0.00 0.00 46 1012.8
20260905140018 28 3 1.6 24.1 0.00 0.00 0.00 49 1012.8
20260905134519 29 332 3.2 12.9 0.00 0.00 0.00 49 1012.6
20260905133019 30 107 1.6 12.9 0.00 0.00 0.00 48 1012.5
20260905131516 30 16 4.8 19.3 0.00 0.00 0.00 48 1012.7
20260905130016 30 260 1.6 8.0 0.00 0.00 0.00 51 1012.1
20260905124516 30 37 3.2 12.9 0.00 0.00 0.00 48 1012.1
20260905123015 30 349 1.6 20.9 0.00 0.00 0.00 48 1011.9
20260905121514 30 325 1.6 17.7 0.00 0.00 0.00 48 1012.0
20260905120014 31 128 1.6 11.3 0.00 0.00 0.00 49 1012.3
20260905114513 31 239 0.0 12.9 0.00 0.00 0.00 49 1012.3
20260905113015 30 247 3.2 24.1 0.00 0.00 0.00 52 1012.4
20260905111512 30 113 6.4 22.5 0.00 0.00 0.00 51 1012.6
20260905110015 30 77 6.4 19.3 0.00 0.00 0.00 49 1012.5